Regional Weather Roundup
Issued by NWS Wakefield, VA

Home | Current Version | Previous Version | Graphics & Text | Print | Product List | Glossary On
Versions: 1 2 3 4 5 6 7 8 9 10 11 12 13 14 15 16 17 18 19 20 21 22 23 24 25 26 27 28 29 30 31 32 33 34 35 36 37 38 39 40 41 42 43 44 45 46 47 48 49 50
000
ASUS41 KAKQ 280410
RWRAKQ

REGIONAL WEATHER ROUNDUP
NATIONAL WEATHER SERVICE WAKEFIELD VA
1100 PM EST THU NOV 27 2014

Note: "fair" indicates few or no clouds below 12,000 feet with no
significant weather and/or obstructions to visibility. * = Denotes
station may not report precipitation (e.g., rain,snow,etc.),
thunder or fog.

VAZ042-051-052>054-056-280500-
NORTHERN VIRGINIA

CITY           SKY/WX    TMP DP  RH WIND       PRES   REMARKS
WASH NATIONAL  MOCLDY    41  27  57 NW9       30.18S
DULLES         PTCLDY    34  27  75 NW12      30.19R
FORT BELVOIR   PTCLDY    37  27  66 W9        30.19R
QUANTICO       PTCLDY    34  29  82 NW5       30.21R
FREDERICKSBRG* CLEAR     35  29  80 W3        30.19S
STAFFORD*      PTCLDY    28  28 100 CALM      30.24R
WARRENTON      CLEAR     34  31  88 NW8       30.19R
CULPEPER*      PTCLDY    36  27  69 NW5       30.21R
MANASSAS*      PTCLDY    36  30  80 NW8       30.19R
LEESBURG*      PTCLDY    36  32  87 NW12G18   30.18S
WINCHESTER     CLEAR     34  21  60 NW15      30.19R WCI  24
FRONT ROYAL*   CLOUDY    34  21  60 W9G23     30.19R
LURAY*         CLOUDY    34  28  80 NW12      30.20R
$$

VAZ048-049-060>072-079>083-280500-
CENTRAL AND SOUTH CENTRAL VIRGINIA

CITY           SKY/WX    TMP DP  RH WIND       PRES   REMARKS
RICHMOND       PTCLDY    37  28  70 NW9       30.20R
CHESTERFIELD*  CLEAR     36  18  48 NW8       30.21S
PETERSBURG*    PTCLDY    36  30  81 W5        30.21S
HANOVER        PTCLDY    32  26  78 NW6       30.22R
TAPPAHANNOCK*  PTCLDY    33  29  85 CALM      30.20R
QUINTON*       PTCLDY    34  32  93 NW3       30.20R
CHARLOTTSVILLE CLOUDY    35  23  61 VRB3      30.20R
GORDONSVILLE*  MOCLDY    33  24  67 SW3       30.20R
ORANGE*        CLEAR     36  27  69 SW5       30.21S
LOUISA*        CLEAR     28  25  86 CALM      30.19R
BUMPASS*       PTCLDY    32  26  78 CALM      30.20R
FARMVILLE*     CLEAR     35  23  60 W5        30.21S
CREWE*         CLEAR     35  24  64 NW9       30.20S
FORT PICKETT*  PTCLDY    34  26  72 W8        30.20S
CHASE CITY*    CLEAR     35  27  73 W7        30.23S
CLARKSVILLE*   CLEAR     34  25  69 NW8       30.23S
SOUTH HILL*    CLEAR     35  24  64 W7        30.27F
LAWRENCEVILLE* PTCLDY    34  28  77 W3        30.20F
$$

VAZ088>098-280500-
SOUTHEAST VIRGINIA

CITY           SKY/WX    TMP DP  RH WIND       PRES   REMARKS
NORFOLK        CLOUDY    41  31  67 NW6       30.18R
VIRGINIA BEACH CLOUDY    40  34  79 NW8       30.16S
NORFOLK NAVAL  CLOUDY    42  32  67 NW12      30.20R
WEST POINT*    CLEAR     38  32  78 CALM      30.21R
SALUDA*        FAIR      39  31  71 NW9G17    30.18R
NEWPORT NEWS   MOCLDY    40  33  76 NW6       30.19R
LANGLEY AFB    CLOUDY    38  35  87 NW9       30.20R
FORT EUSTIS    CLOUDY    40  31  68 NW7       30.18R
WILLIAMSBURG*  CLOUDY    37  37 100 NW7       30.20S
HR EXEC AP*    CLOUDY    37  36  93 CALM      30.20F
FRANKLIN*      CLOUDY    39  37  93 NW5       30.20S
WAKEFIELD      MOCLDY    39  35  86 CALM      30.20R
$$

VAZ020-022-025-037-045-280500-
WEST CENTRAL AND SOUTHWEST VIRGINIA

CITY           SKY/WX    TMP DP  RH WIND       PRES   REMARKS
STAUNTON*      PTCLDY    31  20  63 NW7       30.21S
WAYNESBORO*    CLOUDY    31  20  65 W8        30.18S
HOT SPRINGS VA LGT SNOW  20  19  96 NW15G24   30.05S WCI   7
LYNCHBURG      PTCLDY    34  19  54 W9        30.24R
DANVILLE       CLOUDY    37  22  54 NW8       30.26R
SOUTH BOSTON*  CLEAR     35  22  59 NW12      30.25R
MARTINSVILLE   CLOUDY    35  21  57 NW14      30.29S
ROANOKE        MOCLDY    33  17  51 NW9       30.27R
BLACKSBURG     CLOUDY    28  21  74 NW7       30.24S
DUBLIN*        CLOUDY    30  21  68 NW10      30.24S WCI  21
MARION*        FLURRIES  27  20  74 W10G20    30.24F WCI  18
HILLSVILLE*    CLOUDY    26  17  69 NW21      30.19F WCI  11
RICHLANDS*     LGT SNOW  27  24  89 NW6       30.25F
WISE*          FLURRIES  27  25  93 NW7       30.28S
ABINGDON*      FLURRIES  30  22  73 NW6       30.30S
$$

MDZ021>025-VAZ099-100-280500-
SOUTHERN MARYLAND AND THE DELMARVA PENINSULA

CITY           SKY/WX    TMP DP  RH WIND       PRES   REMARKS
PATUXENT RIVER CLOUDY    37  28  70 NW10      30.16S
BAY BRIDGE APT   N/A     37  30  75 W13       30.16S
LEONARDTOWN    CLOUDY    36  28  75 W6        30.18S
DOVER          CLEAR     32  29  88 W3        30.12R
GEORGETOWN     CLEAR     34  27  75 CALM      30.14S
EASTON         CLEAR     36  32  84 CALM      30.18S
CAMBRIDGE      CLEAR     37  32  81 W5        30.15S
SALISBURY      CLEAR     32  27  81 CALM      30.15R
OCEAN CITY     CLEAR     32  27  81 NW6       30.14S
WALLOPS ISLAND CLEAR     33  30  88 NW5       30.16R
ACCOMACK*      CLOUDY    39  30  70 NW8       30.15S
$$

NCZ012>017-030>032-280500-
NORTH CENTRAL AND EASTERN NORTH CAROLINA

CITY           SKY/WX    TMP DP  RH WIND       PRES   REMARKS
ROANOKE RAPIDS CLEAR     36  28  75 NW8       30.22S
RALEIGH        PTCLDY    37  25  61 CALM      30.25R
ELIZABETH CITY MOCLDY    43  36  76 NW10      30.18S
AHOSKIE*       CLOUDY    38  31  76 NW5       30.22R
EDENTON*       CLOUDY    42  40  93 NW6       30.20R
CURRITUCK*     MOCLDY    39  36  87 NW7       30.18S
KILL DEVIL HLS CLEAR     42  36  80 NW8G16    30.14R
MANTEO         CLEAR     42  34  74 NW13      30.16R
CAPE HATTERAS  PTCLDY    44  34  67 NW14G24   30.15R
TARBORO*       CLOUDY    37  29  72 W6        30.24S
GOLDSBORO      CLEAR     39  33  78 NW10      30.22R
WASHINGTON     PTCLDY    39  30  69 NW7       30.22R
GREENVILLE     CLEAR     37  30  75 NW7       30.23S
NEW BERN       CLEAR     42  31  64 NW9       30.22R
WILMINGTON     CLEAR     41  32  70 N10       30.23R
$$

VAZ048-280500-
ELSEWHERE

CITY           SKY/WX    TMP DP  RH WIND       PRES   REMARKS
HARRISBURG PA  MOCLDY    33  28  81 NW7       30.12S
BALTIMORE      FLURRIES  37  31  78 W14G20    30.15S
ANNAPOLIS      CLOUDY    38  30  73 NW6       30.16S
ANDREWS AFB    MOCLDY    38  28  65 W15       30.16R
PHILADELPHIA   CLEAR     31  24  75 W6        30.13R
WILDWOOD NJ*   CLEAR     37  25  60 NW8       30.11R
HENDERSON NC   CLEAR     34  24  65 NW3       30.24R
GREENSBORO     PTCLDY    35  20  54 NW9G24    30.25R
ROCKY MOUNT    CLEAR     37  25  61 NW8       30.24R
$$

VAZ100-280500-
MARINE

STATION/POSITION TIME  TEMP    WIND        PRES    WAVE   SWELL
                       AIR SEA DIR/SP/G            HT/PER HT/PER
                 (UTC) (F)     (DEG/KT/KT) (MB)    (FT/S) (FT/S)
CAPE MAY NJ      0400   39 48  320/  6/ 14 1019.3S
LEWES DE         0400   38 46  300/ 12/ 16 1019.8F
15NM E FENWICK I 0400   41 54              1019.0S   5/ 5
OCEAN-CITY-INLET 0400   36 48  330/  7/  9 1020.0R
WACHAPREAGUE VA  0400   39 47  360/  2/  8 1020.9R
THOMAS POINT MD  0400   38 47  300/ 15/ 17 1022.1F
GOOSES REEF MD   0400   40 47  320/ 16/ 19 1021.5R   2/ 2
COVE POINT MD    0400   38     330/ 13/ 17 1021.0S
SOLOMONS ISLAND  0400      48                N/A
BISHOPS HEAD MD  0400   39 43  320/  9/ 12 1020.6R
PINEY POINT MD   0400          330/ 18/ 20   N/A
POTOMAC MD       0400   41 48  330/ 16/ 19 1021.0R   2/ 3
CAMBRIDGE MD     0400   40 45  300/  9/ 12 1020.7F
LEWISETTA VA     0400   40 47  310/ 10/ 12 1021.4F
RAPPAHANNOCK LGT 0400          320/ 19/ 22 1021.5S
STINGRAY PT      0400   41 49  320/ 14/ 17 1022.2R   1/ 2
YORK RVR RNG VA  0400   39     330/ 11/ 13 1021.5R
YORKTOWN VA      0400   41 50  320/ 14/ 16 1021.8R
JAMESTOWN VA     0400   40 49  340/ 12/ 14   N/A     0
DOMINION TERM VA 0400   41     350/ 11/ 14 1022.1R
KIPTOPEKE VA     0400      54  360/ 12/ 19   N/A
CHES BAY BRIDGE  0400   43 51  320/ 18/ 21 1021.1S
CAPE HENRY VA    0400   42     320/ 21/ 23 1020.2R
CHESAPEAKE LGHT  0300   44     340/ 20/ 23 1021.1R
WILLOUBY STN VA  0400   40     340/ 10/ 11 1020.6R
S CRANEY ISL VA  0400          300/  9/ 13 1021.8R
CAPE HENRY BUOY  0300      55                N/A     4/ 9   2/13
1ST LANDING BUOY 0400   44 51  330/ 21/ 25 1021.2R   3/ 3
CAPE CHARLES BUO 0300      54                N/A     3/ 8   2/ 8
64NM E OF VA BCH 0400   48 65  340/ 21/ 29 1018.7R   6/ 6   2/ 9
DUCK PIER NC     0400   42 53  320/ 17/ 22 1020.0R
44100 DUCK FRF   0400      57                N/A     6/ 5   2/14
44056 DUCK FRF   0400      54                N/A     5/ 5   2/14
OREGON INLET NC  0400   44 56  320/ 14/ 17 1020.7S
HATTERAS NC      0400   47 58  330/ 20/ 23 1021.1S
DIAMOND SHLS NC  0400   48     320/ 21/ 27 1019.8R   7/ 5   2/14



USA.gov is the U.S. government's official web portal to all federal, state and local government web resources and services.